�������l�o���
Date,Time,MP-1(��Sv/h),MP-2(��Sv/h),MP-3(��Sv/h),MP-4(��Sv/h),MP-5(��Sv/h),MP-6(��Sv/h),MP-7(��Sv/h),MP-8(��Sv/h),����,����(m/s),���J
2017/03/30,00:00,1.003,1.639,1.107,1.946,1.342,0.540,0.994,0.923,�쐼,5.4,��
2017/03/30,00:10,1.004,1.644,1.107,1.944,1.343,0.539,0.991,0.922,�쐼,6.6,��
2017/03/30,00:20,1.002,1.642,1.109,1.946,1.342,0.540,0.992,0.923,�쐼,6.4,��
2017/03/30,00:30,1.003,1.641,1.105,1.942,1.342,0.540,0.993,0.922,�쐼,5.0,��
2017/03/30,00:40,1.005,1.640,1.105,1.947,1.344,0.540,0.993,0.922,�쐼,5.5,��
2017/03/30,00:50,1.003,1.641,1.106,1.946,1.343,0.540,0.991,0.925,�쐼,6.0,��
2017/03/30,01:00,1.004,1.640,1.108,1.949,1.341,0.541,0.993,0.922,�쐼,5.5,��
2017/03/30,01:10,1.003,1.642,1.108,1.945,1.343,0.540,0.992,0.923,�쐼,5.0,��
2017/03/30,01:20,1.002,1.643,1.107,1.950,1.342,0.540,0.991,0.922,�쐼,4.3,��
2017/03/30,01:30,1.004,1.641,1.105,1.946,1.343,0.541,0.992,0.924,�쐼,4.1,��
2017/03/30,01:40,1.003,1.640,1.107,1.945,1.343,0.539,0.992,0.922,�쐼,3.6,��
2017/03/30,01:50,1.004,1.642,1.105,1.944,1.342,0.540,0.992,0.921,�쐼,3.3,��
2017/03/30,02:00,1.004,1.642,1.109,1.946,1.342,0.539,0.992,0.925,�쐼,4.8,��
2017/03/30,02:10,1.004,1.640,1.106,1.943,1.342,0.539,0.991,0.921,�쐼,4.2,��
2017/03/30,02:20,1.006,1.641,1.105,1.946,1.343,0.543,0.989,0.922,�쐼,4.9,��
2017/03/30,02:30,1.005,1.641,1.104,1.948,1.341,0.540,0.994,0.923,�쐼,5.5,��
2017/03/30,02:40,1.003,1.641,1.105,1.943,1.341,0.541,0.993,0.924,�쐼,5.7,��
2017/03/30,02:50,1.002,1.642,1.104,1.944,1.342,0.539,0.991,0.923,��쐼,6.5,��
2017/03/30,03:00,1.002,1.640,1.106,1.945,1.339,0.543,0.990,0.922,�쐼,5.3,��
2017/03/30,03:10,1.003,1.641,1.106,1.944,1.343,0.541,0.991,0.923,�쐼,5.6,��
2017/03/30,03:20,1.003,1.643,1.107,1.946,1.343,0.540,0.991,0.922,�쐼,5.3,��
2017/03/30,03:30,1.004,1.642,1.106,1.946,1.341,0.539,0.990,0.923,�쐼,5.4,��
2017/03/30,03:40,1.002,1.641,1.105,1.948,1.341,0.541,0.990,0.923,�쐼,4.7,��
2017/03/30,03:50,1.004,1.641,1.107,1.946,1.340,0.539,0.992,0.924,�쐼,4.0,��
2017/03/30,04:00,1.004,1.641,1.106,1.945,1.340,0.539,0.992,0.924,�쐼,3.7,��
2017/03/30,04:10,1.004,1.641,1.104,1.944,1.342,0.540,0.991,0.922,�쐼,4.2,��
2017/03/30,04:20,1.004,1.640,1.104,1.948,1.341,0.539,0.992,0.922,��쐼,5.3,��
2017/03/30,04:30,1.003,1.639,1.107,1.944,1.342,0.540,0.992,0.922,��쐼,4.4,��
2017/03/30,04:40,1.004,1.641,1.106,1.945,1.340,0.540,0.990,0.924,��쐼,5.3,��
2017/03/30,04:50,1.003,1.639,1.105,1.946,1.344,0.542,0.991,0.922,�쐼,4.8,��
2017/03/30,05:00,1.004,1.640,1.106,1.944,1.342,0.540,0.992,0.922,��쐼,4.8,��
2017/03/30,05:10,1.005,1.641,1.106,1.945,1.339,0.540,0.994,0.924,��쐼,4.9,��
2017/03/30,05:20,1.003,1.640,1.108,1.947,1.342,0.538,0.993,0.923,�쐼,4.9,��
2017/03/30,05:30,1.003,1.642,1.108,1.947,1.342,0.540,0.992,0.923,�쐼,5.0,��
2017/03/30,05:40,1.003,1.638,1.105,1.944,1.343,0.540,0.993,0.924,�쐼,4.9,��
2017/03/30,05:50,1.003,1.640,1.108,1.948,1.342,0.541,0.990,0.924,�쐼,5.0,��
2017/03/30,06:00,1.003,1.642,1.108,1.949,1.344,0.539,0.991,0.923,�쐼,5.3,��
2017/03/30,06:10,1.003,1.643,1.106,1.946,1.342,0.538,0.993,0.922,�쐼,5.5,��
2017/03/30,06:20,1.003,1.642,1.107,1.949,1.342,0.541,0.992,0.922,�쐼,4.1,��
2017/03/30,06:30,1.004,1.642,1.108,1.950,1.342,0.540,0.994,0.924,�쐼,2.9,��
2017/03/30,06:40,1.002,1.641,1.108,1.945,1.343,0.540,0.993,0.924,��쐼,3.8,��
2017/03/30,06:50,1.004,1.643,1.109,1.947,1.344,0.542,0.993,0.924,��,4.3,��
2017/03/30,07:00,1.005,1.644,1.108,1.947,1.345,0.540,0.993,0.924,��,3.5,��
2017/03/30,07:10,1.008,1.641,1.108,1.950,1.344,0.540,0.995,0.923,��,3.6,��
2017/03/30,07:20,1.006,1.645,1.109,1.948,1.344,0.539,0.994,0.923,��,4.0,��
2017/03/30,07:30,1.006,1.642,1.108,1.949,1.346,0.540,0.993,0.925,��,2.6,��
2017/03/30,07:40,1.008,1.644,1.109,1.950,1.344,0.541,0.996,0.924,��쐼,2.6,��
2017/03/30,07:50,1.007,1.645,1.111,1.952,1.344,0.541,0.996,0.925,��쐼,3.2,��
2017/03/30,08:00,1.007,1.644,1.111,1.952,1.344,0.540,0.995,0.927,��쐼,2.8,��
2017/03/30,08:10,1.007,1.644,1.111,1.951,1.345,0.543,0.996,0.925,��쐼,2.0,��
2017/03/30,08:20,1.009,1.643,1.112,1.948,1.342,0.541,0.997,0.926,��쐼,2.6,��
2017/03/30,08:30,1.008,1.644,1.111,1.953,1.345,0.542,0.999,0.924,��쐼,2.8,��
2017/03/30,08:40,1.009,1.647,1.111,1.952,1.347,0.543,0.997,0.924,��쐼,2.0,��
2017/03/30,08:50,1.009,1.646,1.113,1.954,1.347,0.542,0.996,0.927,��쐼,2.3,��
2017/03/30,09:00,1.010,1.648,1.116,1.953,1.348,0.541,0.993,0.925,��쓌,2.3,��
2017/03/30,09:10,1.009,1.647,1.113,1.956,1.348,0.543,0.996,0.926,��쓌,2.8,��
2017/03/30,09:20,1.009,1.645,1.115,1.953,1.348,0.543,0.995,0.926,��쓌,3.9,��
2017/03/30,09:30,1.008,1.643,1.112,1.952,1.350,0.540,0.993,0.921,��쓌,4.5,��
2017/03/30,09:40,1.010,1.645,1.113,1.954,1.348,0.541,0.995,0.925,��쓌,5.3,��
2017/03/30,09:50,1.012,1.644,1.117,1.954,1.349,0.540,0.993,0.922,��쓌,4.6,��
2017/03/30,10:00,1.010,1.644,1.113,1.956,1.347,0.540,0.994,0.923,��쓌,5.3,��
2017/03/30,10:10,1.012,1.644,1.115,1.956,1.350,0.539,0.994,0.923,�쓌,5.1,��
2017/03/30,10:20,1.013,1.645,1.115,1.955,1.349,0.539,0.996,0.921,�쓌,5.1,��
2017/03/30,10:30,1.012,1.646,1.115,1.956,1.346,0.539,0.995,0.922,��쓌,5.6,��
2017/03/30,10:40,1.013,1.647,1.113,1.956,1.348,0.539,0.996,0.922,��쓌,6.8,��
2017/03/30,10:50,1.013,1.649,1.116,1.959,1.349,0.540,0.995,0.923,��쓌,7.3,��
2017/03/30,11:00,1.011,1.650,1.119,1.955,1.350,0.540,0.996,0.924,��쓌,6.9,��
2017/03/30,11:10,1.015,1.649,1.120,1.958,1.349,0.540,0.996,0.923,��쓌,8.1,��
2017/03/30,11:20,1.014,1.647,1.118,1.958,1.347,0.542,0.997,0.926,��쓌,8.5,��
2017/03/30,11:30,1.013,1.647,1.116,1.958,1.352,0.541,0.996,0.924,��쓌,9.3,��
2017/03/30,11:40,1.014,1.646,1.118,1.956,1.350,0.542,0.997,0.923,��쓌,9.1,��
2017/03/30,11:50,1.015,1.650,1.119,1.960,1.353,0.542,0.997,0.924,��쓌,7.9,��
2017/03/30,12:00,1.013,1.648,1.116,1.960,1.350,0.543,0.997,0.924,��쓌,7.8,��
2017/03/30,12:10,1.013,1.654,1.117,1.960,1.353,0.541,0.997,0.923,��,6.6,��
2017/03/30,12:20,1.013,1.655,1.114,1.961,1.352,0.543,0.997,0.923,��쓌,7.5,��
2017/03/30,12:30,1.015,1.655,1.117,1.963,1.350,0.540,0.997,0.923,��쓌,7.6,��
2017/03/30,12:40,1.015,1.657,1.117,1.959,1.352,0.543,0.996,0.921,��쓌,9.6,��
2017/03/30,12:50,1.016,1.659,1.116,1.962,1.353,0.543,0.999,0.924,��쓌,8.4,��
2017/03/30,13:00,1.015,1.652,1.118,1.961,1.353,0.544,0.996,0.926,��쓌,9.5,��
2017/03/30,13:10,1.015,1.656,1.117,1.964,1.354,0.544,0.996,0.924,��쓌,7.2,��
2017/03/30,13:20,1.017,1.653,1.121,1.963,1.353,0.545,0.996,0.925,��쓌,9.0,��
2017/03/30,13:30,1.017,1.654,1.119,1.961,1.354,0.545,0.999,0.924,��쓌,7.6,��
2017/03/30,13:40,1.017,1.652,1.119,1.962,1.355,0.545,0.996,0.924,��쓌,7.5,��
2017/03/30,13:50,1.017,1.654,1.117,1.963,1.358,0.543,0.998,0.924,��쓌,8.4,��
2017/03/30,14:00,1.012,1.652,1.118,1.962,1.355,0.545,0.998,0.925,��쓌,7.2,��
2017/03/30,14:10,1.014,1.654,1.119,1.962,1.356,0.543,0.997,0.923,��쓌,6.9,��
2017/03/30,14:20,1.015,1.655,1.121,1.961,1.353,0.545,0.998,0.925,��,7.2,��
2017/03/30,14:30,1.014,1.654,1.121,1.964,1.354,0.544,0.999,0.923,��,8.4,��
2017/03/30,14:40,1.017,1.660,1.123,1.960,1.354,0.546,0.998,0.925,��,8.9,��
2017/03/30,14:50,1.019,1.660,1.123,1.962,1.355,0.545,0.999,0.926,��,6.9,��
2017/03/30,15:00,1.021,1.658,1.125,1.962,1.356,0.547,0.999,0.924,��,7.6,��
2017/03/30,15:10,1.020,1.660,1.126,1.963,1.356,0.547,0.998,0.925,��쓌,7.7,��
2017/03/30,15:20,1.021,1.661,1.124,1.964,1.355,0.547,0.998,0.927,��,8.8,��
2017/03/30,15:30,1.021,1.664,1.124,1.966,1.358,0.547,1.000,0.926,��,8.5,��
2017/03/30,15:40,1.023,1.666,1.123,1.964,1.360,0.548,1.000,0.927,��,8.0,��
2017/03/30,15:50,1.023,1.662,1.125,1.966,1.356,0.547,1.000,0.926,��,8.1,��
2017/03/30,16:00,1.021,1.667,1.126,1.964,1.357,0.548,0.999,0.927,��,7.3,��
2017/03/30,16:10,1.024,1.668,1.125,1.965,1.359,0.547,1.000,0.928,��,6.6,��
2017/03/30,16:20,1.022,1.665,1.124,1.967,1.360,0.546,1.000,0.929,��,6.0,��
2017/03/30,16:30,1.023,1.666,1.125,1.965,1.359,0.548,0.999,0.929,��,6.9,��
2017/03/30,16:40,1.024,1.663,1.125,1.966,1.361,0.548,0.998,0.929,��,5.0,��
2017/03/30,16:50,1.022,1.665,1.125,1.966,1.359,0.549,0.999,0.928,��,5.0,��
2017/03/30,17:00,1.024,1.665,1.127,1.965,1.358,0.548,1.000,0.930,��,6.0,��
2017/03/30,17:10,1.022,1.667,1.126,1.967,1.358,0.548,0.999,0.930,��쐼,4.5,��
2017/03/30,17:20,1.023,1.667,1.125,1.964,1.357,0.547,0.998,0.928,��쐼,3.3,��
2017/03/30,17:30,1.023,1.666,1.124,1.965,1.357,0.547,1.000,0.928,�쐼,1.7,��
2017/03/30,17:40,1.025,1.664,1.124,1.968,1.358,0.546,1.000,0.928,��,4.0,��
2017/03/30,17:50,1.022,1.664,1.125,1.963,1.362,0.549,1.002,0.929,��,7.4,��
2017/03/30,18:00,1.021,1.666,1.125,1.967,1.361,0.550,1.000,0.927,��,6.5,��
2017/03/30,18:10,1.022,1.664,1.125,1.966,1.361,0.549,1.001,0.927,��,7.3,��
2017/03/30,18:20,1.023,1.665,1.124,1.965,1.359,0.548,1.001,0.927,���쐼,7.1,��
2017/03/30,18:30,1.022,1.662,1.123,1.968,1.359,0.548,0.999,0.928,��,7.2,��
2017/03/30,18:40,1.023,1.663,1.124,1.965,1.362,0.549,0.998,0.928,���쐼,7.9,��
2017/03/30,18:50,1.022,1.662,1.124,1.967,1.361,0.548,0.999,0.929,��,7.0,��
2017/03/30,19:00,1.024,1.662,1.125,1.965,1.358,0.547,1.000,0.928,��,6.0,��
2017/03/30,19:10,1.023,1.664,1.123,1.967,1.361,0.546,1.000,0.927,��,4.8,��
2017/03/30,19:20,1.021,1.660,1.124,1.967,1.360,0.548,1.000,0.927,���k��,3.6,��
2017/03/30,19:30,1.022,1.661,1.125,1.968,1.361,0.546,0.999,0.930,��,2.6,��
2017/03/30,19:40,1.021,1.662,1.123,1.967,1.360,0.548,1.000,0.928,�k��,2.6,��
2017/03/30,19:50,1.021,1.662,1.125,1.965,1.361,0.545,0.999,0.928,���k��,6.0,��
2017/03/30,20:00,1.021,1.662,1.123,1.969,1.361,0.549,1.002,0.928,��,8.0,��
2017/03/30,20:10,1.022,1.663,1.124,1.965,1.363,0.548,1.002,0.928,���k��,13.8,��
2017/03/30,20:20,1.024,1.663,1.124,1.967,1.360,0.547,1.001,0.929,���k��,15.5,��
2017/03/30,20:30,1.022,1.664,1.123,1.970,1.360,0.546,1.000,0.927,��,9.0,��
2017/03/30,20:40,1.022,1.663,1.122,1.966,1.363,0.546,1.001,0.928,���k��,8.1,��
2017/03/30,20:50,1.022,1.663,1.122,1.966,1.362,0.547,0.999,0.929,��,7.6,��
2017/03/30,21:00,1.022,1.661,1.126,1.967,1.360,0.547,0.999,0.928,��,10.7,��
2017/03/30,21:10,1.021,1.662,1.123,1.968,1.360,0.548,1.000,0.929,��,9.2,��
2017/03/30,21:20,1.024,1.665,1.123,1.967,1.360,0.545,0.998,0.928,���쐼,7.9,��
2017/03/30,21:30,1.019,1.663,1.124,1.970,1.360,0.546,0.997,0.929,��,8.3,��
2017/03/30,21:40,1.020,1.662,1.125,1.967,1.363,0.545,0.998,0.928,��,8.2,��
2017/03/30,21:50,1.021,1.663,1.124,1.971,1.362,0.548,0.999,0.928,��,7.9,��
2017/03/30,22:00,1.032,1.661,1.123,1.971,1.361,0.547,1.001,0.926,��,7.8,��
2017/03/30,22:10,1.021,1.663,1.123,1.970,1.357,0.548,1.000,0.928,��,7.6,��
2017/03/30,22:20,1.022,1.662,1.125,1.968,1.362,0.547,1.000,0.926,���k��,3.7,��
2017/03/30,22:30,1.024,1.662,1.127,1.969,1.360,0.548,0.998,0.928,��,2.5,��
2017/03/30,22:40,1.022,1.663,1.123,1.970,1.361,0.546,1.001,0.929,��,3.5,��
2017/03/30,22:50,1.022,1.663,1.123,1.969,1.359,0.547,1.000,0.929,��,5.0,��
2017/03/30,23:00,1.025,1.662,1.125,1.969,1.359,0.546,1.000,0.930,���쐼,6.9,��
2017/03/30,23:10,1.022,1.662,1.122,1.969,1.360,0.547,1.000,0.927,��,7.3,��
2017/03/30,23:20,1.023,1.661,1.123,1.969,1.359,0.548,1.004,0.929,��,7.4,��
2017/03/30,23:30,1.022,1.662,1.122,1.969,1.361,0.547,1.000,0.929,��,7.8,��
2017/03/30,23:40,1.023,1.662,1.122,1.968,1.362,0.546,1.002,0.927,��,7.1,��
2017/03/30,23:50,1.023,1.661,1.123,1.971,1.360,0.546,1.002,0.927,��,6.9,��
